Location: Haliburton Scout Reserve
(45.0900°N, 78.3200°W)
Time: 14:24:33
(UTC-04:00)

CUTE 1.7 + AOD 2 - Visible Passes

Search period start: 16 May 2022 00:00
Search period end: 26 May 2022 00:00
Orbit: 591 x 608 km, 97.7° (Epoch: 16 May)

Date Brightness Start Highest point End Pass type
(mag) Time Alt. Az. Time Alt. Az. Time Alt. Az.
16 May ? 04:14:09 10° NE 04:17:16 20° E 04:20:23 10° SE visible
17 May ? 04:24:46 10° NE 04:28:19 25° E 04:31:52 10° SSE visible
18 May ? 04:35:30 10° NNE 04:39:21 32° E 04:43:12 10° SSE visible
19 May ? 04:46:18 10° NNE 04:50:23 42° E 04:54:26 10° S visible
20 May ? 04:57:09 10° NNE 05:01:22 56° E 05:05:33 10° S visible
23 May ? 03:56:09 10° ENE 03:58:03 13° E 03:59:56 10° ESE visible
24 May ? 04:06:22 10° NE 04:09:06 16° E 04:11:50 10° SE visible
25 May ? 04:16:51 10° NE 04:20:08 21° E 04:23:24 10° SE visible
